Lid_Strength_Index
15 15 16 16 16 15 15 15 14 15 15 15 14 14 14 14 15 15 15 15 15 14
14 16 17 16 16 16 15 15 15 15 15 15 15 15 15 15 15 15 15 15 15 14
14 14 15 15 16 16 15 15 15 15 15 15 15 15 16 16 16 16 15 15 15 15
14 15 15 15 15 15 15 15 15 14 15 15 15 15 15 16 16 16 16 16 16 16
14 14 15 14 14 14 14 13 15 14 14 15 15 15 15 16 16 16 16 16 16 16
15 15 14 13 13 13 13 15 15 15 15 15 15 16 15 15 15 16 15 15 15 16
14 14 14 14 14 14 14 14 14 14 15 15 15 15 16 16 16 16 15 15 15 15
13 13 14 14 14 14 14 14 14 14 14 14 15 16 16 15 15 15 15 15 15 15
12 12 12 12 12 12 13 13 14 14 14 15 14 13 12 13 15 15 16 16 15 15
12 13 13 13 14 14 14 14 15 14 14 15 15 12 12 11 13 14 16 16 15 15
14 15 14 15 16 16 16 16 17 17 16 16 15 13 12 13 14 14 14 15 15 16
16 17 17 19 18 18 18 19 19 18 18 19 19 16 15 15 16 16 16 15 15 16
17 21 20 19 20 20 20 20 19 20 20 20 21 17 16 16 17 18 17 16 16 14
18 20 21 21 21 21 22 21 22 22 21 21 20 20 16 15 16 17 17 17 17 16